DW6451 Weather Reports


Display with metric or nautical units.
time (UTC)temp
F
wind
direction
speed
MPH
gust
MPH
rain 1hr
in
rain 24hr
in
rain mn
in
humidity
%
barometer
mb
20260507183018 51 343 3.0 8.0 0.00 0.00 0.00 41 1009.9
20260507181517 52 336 2.0 8.0 0.00 0.00 0.00 39 1010.1
20260507180021 51 294 3.0 10.0 0.00 0.00 0.00 42 1010.2
20260507174518 51 336 3.0 9.0 0.00 0.00 0.00 42 1010.5
20260507173020 50 263 2.0 8.0 0.00 0.00 0.00 44 1010.7
20260507171514 50 250 3.0 12.0 0.00 0.00 0.00 42 1010.9
20260507170007 50 263 3.0 9.0 0.00 0.00 0.00 44 1010.9
20260507164506 49 23 3.0 8.0 0.00 0.00 0.00 42 1011.1
20260507163005 49 283 2.0 13.0 0.00 0.00 0.00 44 1011.3
20260507161504 49 259 3.0 6.0 0.00 0.00 0.00 44 1011.3
20260507160003 50 323 2.0 5.0 0.00 0.00 0.00 44 1011.4
20260507154559 49 307 1.0 13.0 0.00 0.00 0.00 48 1011.5
20260507153059 49 321 4.0 12.0 0.00 0.00 0.00 45 1011.6
20260507151600 48 316 3.0 10.0 0.00 0.00 0.00 45 1011.8
20260507150053 48 302 2.0 11.0 0.00 0.00 0.00 49 1011.8
20260507144603 48 263 2.0 8.0 0.00 0.00 0.00 49 1011.8
20260507143058 47 329 3.0 7.0 0.00 0.00 0.00 52 1012.0
20260507141556 47 332 1.0 8.0 0.00 0.00 0.00 54 1012.1
20260507140043 46 263 2.0 8.0 0.00 0.00 0.00 56 1012.3
20260507134541 45 5 2.0 6.0 0.00 0.00 0.00 58 1012.4
20260507133105 44 206 2.0 6.0 0.00 0.00 0.00 61 1012.4
20260507131536 43 208 2.0 5.0 0.00 0.00 0.00 62 1012.5
20260507130034 42 269 1.0 4.0 0.00 0.00 0.00 65 1012.6
20260507124528 41 231 0.0 5.0 0.00 0.00 0.00 66 1012.7
20260507123035 40 225 1.0 4.0 0.00 0.00 0.00 68 1012.7
20260507121514 39 271 1.0 5.0 0.00 0.00 0.00 70 1012.7
20260507120018 37 288 0.0 3.0 0.00 0.00 0.00 74 1012.7
20260507114516 36 288 0.0 2.0 0.00 0.00 0.00 74 1012.6
20260507113023 37 288 0.0 0.0 0.00 0.00 0.00 72 1012.5
20260507111522 37 288 0.0 0.0 0.00 0.00 0.00 72 1012.4
20260507110019 38 288 0.0 0.0 0.00 0.00 0.00 71 1012.5
20260507104518 38 288 0.0 1.0 0.00 0.00 0.00 71 1012.3
20260507103016 38 288 0.0 2.0 0.00 0.00 0.00 70 1012.3
20260507101515 38 288 0.0 2.0 0.00 0.00 0.00 70 1012.2
20260507100020 39 288 0.0 3.0 0.00 0.00 0.00 70 1012.2
20260507094512 39 296 0.0 3.0 0.00 0.00 0.00 70 1012.2
20260507093010 39 296 0.0 2.0 0.00 0.00 0.00 70 1012.3
20260507091511 39 296 0.0 2.0 0.00 0.00 0.00 70 1012.4
20260507090011 39 296 0.0 1.0 0.00 0.00 0.00 70 1012.4
20260507084507 39 296 0.0 1.0 0.00 0.00 0.00 71 1012.4
20260507083005 39 296 0.0 1.0 0.00 0.00 0.00 70 1012.5
20260507081504 39 296 0.0 0.0 0.00 0.00 0.00 70 1012.5
20260507080002 39 296 0.0 0.0 0.00 0.00 0.00 70 1012.5
20260507074501 39 296 0.0 0.0 0.00 0.00 0.00 69 1012.6
20260507073108 39 296 0.0 1.0 0.00 0.00 0.00 69 1012.7
20260507071558 39 296 0.0 0.0 0.00 0.00 0.00 69 1012.8
20260507070104 40 296 0.0 0.0 0.00 0.00 0.00 68 1012.9
20260507064557 40 296 0.0 0.0 0.00 0.00 0.00 67 1013.1
20260507063052 40 296 0.0 0.0 0.00 0.00 0.00 67 1013.2
20260507061551 40 296 0.0 0.0 0.00 0.00 0.00 67 1013.3
20260507060053 40 296 0.0 2.0 0.00 0.00 0.00 67 1013.4
20260507054548 40 296 0.0 0.0 0.00 0.00 0.00 66 1013.5
20260507053045 40 296 1.0 3.0 0.00 0.00 0.00 66 1013.5
20260507051544 41 297 0.0 2.0 0.00 0.00 0.00 66 1013.7
20260507050041 41 297 1.0 3.0 0.00 0.00 0.00 65 1013.7
20260507044556 41 297 0.0 3.0 0.00 0.00 0.00 65 1013.8
20260507043042 41 297 0.0 2.0 0.00 0.00 0.00 65 1013.9
20260507041545 41 297 0.0 0.0 0.00 0.00 0.00 64 1013.9
20260507040044 41 297 0.0 1.0 0.00 0.00 0.00 64 1014.1
20260507034544 42 297 0.0 2.0 0.00 0.00 0.00 63 1014.1
20260507033050 42 297 0.0 2.0 0.00 0.00 0.00 62 1014.2
20260507031553 42 298 0.0 2.0 0.00 0.00 0.00 61 1014.2
20260507030100 42 298 1.0 4.0 0.00 0.00 0.00 61 1014.3
20260507024555 42 296 0.0 3.0 0.00 0.00 0.00 60 1014.2
20260507023036 42 295 1.0 4.0 0.00 0.00 0.00 60 1014.2
20260507021537 43 300 0.0 4.0 0.00 0.00 0.00 59 1014.2
20260507020049 43 262 0.0 4.0 0.00 0.00 0.00 58 1014.2
20260507014543 43 249 1.0 4.0 0.00 0.00 0.00 57 1014.0
20260507013039 43 244 0.0 3.0 0.00 0.00 0.00 56 1014.0
20260507011539 43 244 1.0 4.0 0.00 0.00 0.00 56 1014.0
20260507010041 43 244 1.0 8.0 0.00 0.00 0.00 56 1013.9
20260507004533 43 265 1.0 7.0 0.00 0.00 0.00 56 1013.9
20260507003033 44 317 2.0 7.0 0.00 0.00 0.00 56 1013.9
20260507001535 44 243 1.0 9.0 0.00 0.00 0.00 55 1013.9
20260507000033 44 244 2.0 7.0 0.00 0.00 0.00 55 1014.0
20260506234531 44 316 2.0 9.0 0.00 0.00 0.00 55 1014.0
20260506233030 44 257 3.0 9.0 0.00 0.00 0.00 56 1014.1
20260506231533 44 243 3.0 7.0 0.00 0.00 0.00 56 1014.2
20260506230028 44 327 1.0 12.0 0.00 0.00 0.00 56 1014.1
20260506224528 45 244 1.0 8.0 0.00 0.00 0.00 56 1014.1
20260506223028 44 252 2.0 6.0 0.00 0.00 0.00 56 1014.1
20260506221527 44 277 1.0 8.0 0.00 0.00 0.00 56 1014.1
20260506220027 44 296 2.0 7.0 0.00 0.00 0.00 56 1014.1
20260506214526 44 221 2.0 6.0 0.00 0.00 0.00 55 1014.1
20260506213028 45 311 3.0 8.0 0.00 0.00 0.00 54 1014.1
20260506211526 45 229 3.0 8.0 0.00 0.00 0.00 54 1014.1
20260506210029 45 268 2.0 6.0 0.00 0.00 0.00 55 1014.2
20260506204523 44 246 3.0 8.0 0.00 0.00 0.00 54 1014.3
20260506203033 44 331 2.0 8.0 0.00 0.00 0.00 54 1014.3
20260506201521 44 250 3.0 8.0 0.00 0.00 0.00 55 1014.5
20260506200020 44 327 2.0 7.0 0.00 0.00 0.00 55 1014.5
20260506194519 43 309 1.0 6.0 0.00 0.00 0.00 57 1014.5
20260506193016 43 338 3.0 8.0 0.00 0.00 0.00 56 1014.7
20260506191515 43 324 2.0 8.0 0.00 0.00 0.00 58 1014.7
20260506190014 43 328 3.0 8.0 0.00 0.00 0.00 58 1014.6
20260506184514 42 332 3.0 8.0 0.00 0.00 0.00 57 1014.7